sat.trackr.live / text

‹ back to catalog

STARLINK-2606

NORAD 48386 · 2021-038AK

PAYLOAD ACTIVE UNKNOWN

§ Identity

Operator
Country
US
Launch date
2021-05-04
Launch site
AFETR
Launch vehicle
Mass (kg)
RCS (m²)

Purposes: comms

External: N2YO · Heavens-Above · Gunter

§ Orbital elements

Epoch: 2026-09-12T02:38:34.609056Z

Period
94.01 min
Inclination
53.1602°
Eccentricity
0.0001481
Mean motion
15.31708727 rev/d
Perigee alt
469.7 km
Apogee alt
471.7 km
Semi-major
6,848.9 km
B*
3.7044e-5
RAAN
197.9864°
Arg perigee
89.0016°
Mean anomaly
271.1155°
Rev number
29,581

§ Raw data

STARLINK-26061 48386U 21038AK  26255.11012279  .00000785  00000+0  37044-4 0  99972 48386  53.1602 197.9864 0001481  89.0016 271.1155 15.31708727295818

JSON: /api/v1/satellites/48386 · /tle

For live sub-satellite position, see the globe view (requires WebGL).

§ Visibility from observer

Set your observer location to see the next 7 days of passes ≥ 10°. The values pass through the URL so the page stays shareable.

No JS? Fill the form by hand. The geolocation button needs JavaScript.